Langdon, ND

5:44 AM CST on December 11, 2017 (GMT -0600)
Langdon

Weather History for KD55 - February, 2014

Change the Weather History Date:

Sunday, February 16, 2014

  Actual Average (KDVL) Record (KDVL)
Temperature  
Mean Temperature 2 °F -  
Max Temperature 15 °F 21 °F 45 °F (1981)
Min Temperature -11 °F 3 °F -31 °F (1967)
Degree Days  
Heating Degree Days 63    
Moisture  
Dew Point 0 °F    
Average Humidity 82    
Maximum Humidity 92    
Minimum Humidity 70    
Precipitation  
Precipitation 0.01 in - - ()
Sea Level Pressure  
Sea Level Pressure 29.88 in    
Wind  
Wind Speed 14 mph (SSE)    
Max Wind Speed 30 mph    
Max Gust Speed 37 mph    
Visibility 4 miles    
Events Fog , Snow    
Averages and records for this station are not official NWS values.
T = Trace of Precipitation, MM = Missing Value Source: NWS Daily Summary

Daily Weather History Graph

Daily Weather History Graph

Search for Another Location

Airport or City:

Trip Planner

Search our weather history database for the weather conditions in past years. The results will help you decide how hot, cold, wet, or windy it might be!

Date:

Astronomy

Feb. 16, 2014 Rise Set
Actual Time 7:39 AM CST 5:56 PM CST
Civil Twilight 7:07 AM CST 6:28 PM CST
Nautical Twilight 6:30 AM CST 7:05 PM CST
Astronomical Twilight 5:54 AM CST 7:42 PM CST
Moon 8:08 PM CST (2/16) 7:58 AM CST (2/16)
Length of Visible Light 11h 21m
Length of Day
10h 16m
Full, 97% of the Moon is Illuminated
Feb 16
Full
Feb 22
Last Quarter
Mar 1
New
Mar 8
First Quarter
Mar 16
Full

Hourly Weather History & Observations

Time (CST) Temp. Windchill Dew Point Humidity Pressure Visibility Wind Dir Wind Speed Gust Speed Precip Events Conditions
12:15 AM -7.6 °F -24.6 °F -13.0 °F 77% 30.08 in 10.0 mi NE 9.2 mph - N/A   Mostly Cloudy
12:35 AM -7.6 °F - -13.0 °F 77% 30.09 in 10.0 mi Calm Calm - N/A   Scattered Clouds
12:55 AM -9.4 °F - -13.0 °F 84% 30.10 in 10.0 mi Calm Calm - N/A   Scattered Clouds
1:15 AM -11.2 °F -20.6 °F -16.6 °F 77% 30.09 in 10.0 mi East 3.5 mph - N/A   Mostly Cloudy
1:35 AM -11.2 °F - -18.4 °F 70% 30.11 in 10.0 mi Calm Calm - N/A   Overcast
1:55 AM -11.2 °F -23.0 °F -16.6 °F 77% 30.10 in 10.0 mi SW 4.6 mph - N/A   Overcast
2:15 AM -11.2 °F - -16.6 °F 77% 30.10 in 10.0 mi Calm Calm - N/A   Overcast
2:35 AM -9.4 °F - -16.6 °F 71% 30.10 in 10.0 mi Calm Calm - N/A   Overcast
2:55 AM -9.4 °F - -14.8 °F 77% 30.09 in 10.0 mi Calm Calm - N/A   Overcast
3:15 AM -9.4 °F - -13.0 °F 84% 30.08 in 10.0 mi Calm Calm - N/A   Overcast
3:35 AM -9.4 °F -24.3 °F -14.8 °F 77% 30.06 in 10.0 mi ESE 6.9 mph - N/A   Overcast
3:55 AM -9.4 °F -25.6 °F -13.0 °F 84% 30.05 in 10.0 mi ESE 8.1 mph - N/A   Scattered Clouds
4:15 AM -9.4 °F -27.9 °F -13.0 °F 84% 30.04 in 10.0 mi SE 10.4 mph - N/A   Clear
4:35 AM -11.2 °F -30.1 °F -16.6 °F 77% 30.04 in 10.0 mi SE 10.4 mph - N/A   Clear
4:55 AM -7.6 °F -27.5 °F -11.2 °F 84% 30.03 in 10.0 mi SE 12.7 mph - N/A   Clear
5:15 AM -5.8 °F -25.2 °F -11.2 °F 77% 30.03 in 10.0 mi SE 12.7 mph - N/A   Clear
5:35 AM -5.8 °F -24.4 °F -11.2 °F 77% 30.03 in 10.0 mi SE 11.5 mph - N/A   Clear
5:55 AM -7.6 °F -27.5 °F -13.0 °F 77% 30.03 in 10.0 mi SE 12.7 mph - N/A   Clear
6:15 AM -9.4 °F -27.9 °F -13.0 °F 84% 30.03 in 10.0 mi SE 10.4 mph - N/A   Clear
6:35 AM -5.8 °F -26.0 °F -9.4 °F 84% 30.02 in 10.0 mi SSE 13.8 mph - N/A   Mostly Cloudy
6:55 AM -2.2 °F -22.2 °F -7.6 °F 78% 30.02 in 6.0 mi SSE 15.0 mph - N/A   Overcast
7:15 AM -0.4 °F -19.9 °F -4.0 °F 85% 30.02 in 3.0 mi SSE 15.0 mph - N/A   Overcast
7:35 AM -0.4 °F -21.7 °F -2.2 °F 92% 30.00 in 1.2 mi SSE 18.4 mph - N/A   Overcast
7:55 AM 1.4 °F -18.8 °F -2.2 °F 85% 30.00 in 1.5 mi SSE 17.3 mph - N/A   Overcast
8:15 AM 3.2 °F -17.1 °F -0.4 °F 85% 29.99 in 1.0 mi SSE 18.4 mph - N/A   Overcast
8:35 AM 5.0 °F -14.7 °F -0.4 °F 78% 29.99 in 0.8 mi SSE 18.4 mph 24.2 mph N/A   Overcast
8:55 AM 5.0 °F -16.7 °F -0.4 °F 78% 29.98 in 0.8 mi South 23.0 mph 27.6 mph N/A   Overcast
9:15 AM 5.0 °F -16.7 °F -0.4 °F 78% 29.97 in 0.2 mi South 23.0 mph 29.9 mph N/A Fog Light Freezing Fog
9:55 AM 5.0 °F -15.2 °F -0.4 °F 78% 29.94 in 1.8 mi SSE 19.6 mph 25.3 mph N/A   Haze
10:15 AM 5.0 °F -15.2 °F -0.4 °F 78% 29.94 in 1.8 mi South 19.6 mph 25.3 mph N/A   Haze
10:35 AM 5.0 °F -17.5 °F 1.4 °F 85% 29.93 in 1.0 mi South 25.3 mph 28.8 mph N/A   Overcast
10:55 AM 6.8 °F -14.7 °F 1.4 °F 79% 29.92 in 0.8 mi South 24.2 mph 27.6 mph N/A   Haze
11:15 AM 8.6 °F -11.9 °F 3.2 °F 79% 29.91 in 1.0 mi SSE 23.0 mph 26.5 mph N/A   Haze
11:35 AM 8.6 °F -11.9 °F 5.0 °F 85% 29.89 in 1.5 mi SSE 23.0 mph 27.6 mph N/A   Overcast
11:55 AM 8.6 °F -11.9 °F 5.0 °F 85% 29.88 in 1.2 mi SSE 23.0 mph 29.9 mph N/A   Haze
12:15 PM 10.4 °F -11.0 °F 5.0 °F 79% 29.85 in 1.2 mi SSE 27.6 mph - N/A   Haze
12:35 PM 8.6 °F -11.9 °F 5.0 °F 85% 29.84 in 1.0 mi SSE 23.0 mph 32.2 mph N/A   Haze
12:55 PM 8.6 °F -11.4 °F 5.0 °F 85% 29.85 in 1.8 mi SSE 21.9 mph - N/A   Haze
1:15 PM 8.6 °F -11.4 °F 5.0 °F 85% 29.84 in 1.8 mi SSE 21.9 mph 27.6 mph N/A   Haze
1:35 PM 10.4 °F -10.7 °F 5.0 °F 79% 29.82 in 1.5 mi SSE 26.5 mph 32.2 mph N/A   Haze
1:55 PM 8.6 °F -13.1 °F 5.0 °F 85% 29.80 in 1.5 mi SSE 26.5 mph 32.2 mph N/A   Haze
2:15 PM 10.4 °F -9.1 °F 5.0 °F 79% 29.81 in 2.0 mi SSE 21.9 mph 27.6 mph N/A   Haze
2:35 PM 10.4 °F -11.0 °F 5.0 °F 79% 29.79 in 2.5 mi SSE 27.6 mph 31.1 mph N/A   Haze
2:55 PM 10.4 °F -10.7 °F 5.0 °F 79% 29.78 in 3.0 mi SSE 26.5 mph 29.9 mph N/A   Haze
3:15 PM 10.4 °F -9.9 °F 5.0 °F 79% 29.78 in 2.5 mi SSE 24.2 mph - N/A   Haze
3:35 PM 10.4 °F -9.9 °F 5.0 °F 79% 29.76 in 2.0 mi SSE 24.2 mph 31.1 mph N/A   Haze
3:55 PM 10.4 °F -11.0 °F 5.0 °F 79% 29.74 in 1.2 mi SE 27.6 mph 31.1 mph N/A   Haze
4:15 PM 10.4 °F -10.3 °F 6.8 °F 85% 29.74 in 1.2 mi SE 25.3 mph 32.2 mph N/A   Overcast
4:35 PM 10.4 °F -11.7 °F 6.8 °F 85% 29.73 in 1.0 mi SE 29.9 mph 35.7 mph N/A   Haze
4:55 PM 10.4 °F -11.4 °F 6.8 °F 85% 29.74 in 0.8 mi SE 28.8 mph - N/A   Overcast
5:15 PM 10.4 °F -11.4 °F 6.8 °F 85% 29.73 in 0.8 mi SE 28.8 mph 34.5 mph N/A   Overcast
5:35 PM 12.2 °F -9.3 °F 8.6 °F 85% 29.73 in 1.0 mi SSE 29.9 mph 36.8 mph N/A   Overcast
5:55 PM 12.2 °F -7.9 °F 8.6 °F 85% 29.72 in 1.0 mi SE 25.3 mph 31.1 mph N/A   Overcast
6:15 PM 12.2 °F -8.6 °F 8.6 °F 85% 29.72 in 1.0 mi SE 27.6 mph 32.2 mph N/A   Overcast
6:35 PM 14.0 °F -5.8 °F 8.6 °F 79% 29.73 in 2.5 mi SSE 26.5 mph 32.2 mph N/A   Overcast
6:55 PM 14.0 °F -5.1 °F 8.6 °F 79% 29.74 in 3.0 mi SSE 24.2 mph - N/A   Overcast
7:15 PM 14.0 °F -5.5 °F 10.4 °F 86% 29.74 in 3.0 mi SSE 25.3 mph 33.4 mph N/A   Overcast
7:35 PM 14.0 °F -5.8 °F 10.4 °F 86% 29.72 in 3.0 mi SSE 26.5 mph 32.2 mph N/A   Overcast
7:55 PM 14.0 °F -5.8 °F 10.4 °F 86% 29.71 in 2.5 mi SSE 26.5 mph 32.2 mph N/A   Overcast
8:15 PM 14.0 °F -5.5 °F 10.4 °F 86% 29.70 in 2.5 mi SSE 25.3 mph 33.4 mph N/A   Overcast
8:35 PM 14.0 °F -5.8 °F 10.4 °F 86% 29.70 in 1.8 mi SSE 26.5 mph 29.9 mph N/A Snow Light Snow
8:55 PM 14.0 °F -4.3 °F 10.4 °F 86% 29.70 in 3.0 mi SSE 21.9 mph 29.9 mph N/A   Overcast
9:15 PM 14.0 °F -3.4 °F 10.4 °F 86% 29.70 in 1.0 mi SSE 19.6 mph 28.8 mph N/A Snow Light Snow
9:35 PM 14.0 °F -3.4 °F 10.4 °F 86% 29.70 in 1.2 mi SSE 19.6 mph - N/A Snow Light Snow
9:55 PM 14.0 °F -3.0 °F 10.4 °F 86% 29.69 in 0.8 mi South 18.4 mph - 0.01 in Snow Light Snow
10:15 PM 14.0 °F -3.0 °F 10.4 °F 86% 29.68 in 2.5 mi South 18.4 mph - N/A Snow Light Snow
10:35 PM 14.0 °F -3.4 °F 10.4 °F 86% 29.67 in 3.0 mi South 19.6 mph 25.3 mph N/A   Overcast
10:55 PM 15.8 °F -1.1 °F 10.4 °F 79% 29.66 in 1.0 mi South 19.6 mph 25.3 mph N/A Snow Light Snow
11:15 PM 15.8 °F -1.5 °F 10.4 °F 79% 29.65 in 1.5 mi South 20.7 mph - N/A Snow Light Snow
11:35 PM 15.8 °F -1.1 °F 10.4 °F 79% 29.64 in 3.0 mi South 19.6 mph - N/A   Mostly Cloudy
11:55 PM 15.8 °F -1.1 °F 10.4 °F 79% 29.64 in 4.0 mi South 19.6 mph - N/A   Overcast